USA 134

Last updated on Thu Nov 21 2024 00:02:40 GMT+0000 (Coordinated Universal Time)

1 25019U 97065A 24325.45516407 -.00000062 00000+0 00000+0 0 9999 2 25019 12.0976 25.8043 0004882 244.4213 201.1358 1.00270413 27207
UTC large
Height (km)
Speed (km/s)
/
Latitude / Longitude
Inclination (degrees)
Orbital Period (minutes)
Azimuth
Elevation
Range (km)
Doppler Factor

Next 0 passes for location: London (51.5072 / 0.1276)

Sorry there are no passes over London.